Preview of NWS' New Version of Forecast
This preview is not operational and should not be used for support decisions.

Regional Weather Roundup (RWR)

Issued by National Weather Service (NWS)

                            
000
ASUS44 KMEG 201310
RWRTN 
TENNESSEE HOURLY STATE WEATHER ROUNDUP
NATIONAL WEATHER SERVICE MEMPHIS TN
700 AM CST WED FEB 20 2019

TNZ002-004-019-021-049-052-054-088>092-201400-
WEST TENNESSEE
  
CITY           SKY/WX    TMP DP  RH WIND       PRES   REMARKS
MEMPHIS INTL   CLOUDY    44  44 100 E10       29.80F                  
NWS MEMPHIS      N/A     43 N/A N/A MISG        N/A                   
JACKSON        CLOUDY    43  43 100 E6        29.87F FOG              
DYERSBURG      CLOUDY    41  41 100 E9        29.84F                  
SOMERVILLE     CLOUDY    45  43  93 CALM      29.82F                  
COVINGTON      CLOUDY    41  41 100 SE7       29.82F                  
UNION CITY     CLOUDY    41  39  93 SE7       29.83F                  
PARIS          CLOUDY    39  39 100 E13       29.86F WCI  32          
HUNTINGDON     CLOUDY    41  41 100 E8        29.87F FOG              
SELMER         CLOUDY    48  46  93 NW5       29.87R FOG              
$$

TNZ008-025-027-028-033-062-065-066-201400-
NORTH MIDDLE TENNESSEE
  
CITY           SKY/WX    TMP DP  RH WIND       PRES   REMARKS
NASHVILLE      LGT RAIN  49  46  90 NE5       29.94S FOG              
DICKSON        CLOUDY    43  43 100 VRB5      29.88F FOG              
CLARKSVILLE    CLOUDY    39  36  89 SE9       29.91F WCI  33          
LEBANON        PTSUNNY   50  48  93 W14G25    29.94R FOG              
SMYRNA         RAIN      53  52  95 VRB6      29.96F                  
COOKEVILLE     CLOUDY    50  46  87 S14       29.97R                  
LIVINGSTON     CLOUDY    52 N/A N/A SW6       29.98R FOG              
GALLATIN       CLOUDY    48  46  93 NE3       29.98S                  
CROSSVILLE     CLOUDY    47  44  90 S14G30    30.00R                  
ROCKWOOD       CLOUDY    41  41 100 SW12      30.02R FOG              
$$

TNZ061-075-076-078-094-096-097-201400-
SOUTH MIDDLE TENNESSEE
  
CITY           SKY/WX    TMP DP  RH WIND       PRES   REMARKS
LAWRENCEBURG   CLOUDY    48  46  93 SE20      29.89F FOG              
LEWISBURG      CLOUDY    50  48  93 SE6G13    29.94R FOG              
FAYETTEVILLE   CLOUDY    48  48 100 S17G25    29.96R                  
TULLAHOMA      CLOUDY    46  45  93 SE14G21   29.95S                  
WINCHESTER     CLOUDY    46  43  87 SE10G17   29.99R                  
MCMINNVILLE    CLOUDY    52  48  87 S12G21    29.96R                  
COLUMBIA       CLOUDY    50  50 100 SE7       29.89F FOG              
SHELBYVILLE    CLOUDY    50  48  93 S15G22    29.95R                  
$$

TNZ017-018-042-046-047-201400-
NORTHEAST TENNESSEE
  
CITY           SKY/WX    TMP DP  RH WIND       PRES   REMARKS
TRI CITIES     MOCLDY    46  38  73 SE10      30.13S                  
ELIZABETHTON   MOCLDY    46  36  66 E14G22    30.15S                  
GREENEVILLE    MOSUNNY   48  37  66 VRB6G17   30.09F                  
$$

TNZ012-013-036-069-073-074-201400-
CENTRAL EAST TENNESSEE
  
CITY           SKY/WX    TMP DP  RH WIND       PRES   REMARKS
KNOXVILLE      CLOUDY    43  41  93 N5        30.02F                  
OAK RIDGE      CLOUDY    45  44  97 CALM      30.05F                  
DOWNTOWN KNOXV MOCLDY    45  43  93 CALM      30.04F                  
GATLINBURG     PTCLDY    43  43 100 CALM      30.01F                  
MORRISTOWN     PTCLDY    45  39  81 E9        30.02F                  
JACKSBORO      CLOUDY    45  43  93 NE6       30.05F                  
$$

TNZ083-085-099-201400-
SOUTHEAST TENNESSEE
  
CITY           SKY/WX    TMP DP  RH WIND       PRES   REMARKS
CHATTANOOGA    CLOUDY    44  39  82 S17G23    30.09F                  
DAYTON         CLOUDY    45  43  93 SW9G16    30.04F                  
$$

SKY/WX REPORTED AS FAIR MEANS FEW OR NO CLOUDS BELOW
12 THOUSAND FEET.